GW4891 Weather Reports


time (UTC)temp
C
wind
direction
speed
KPH
gust
KPH
rain 1hr
cm
rain 24hr
cm
rain mn
cm
humidity
%
barometer
mb
20260508054451 2 276 1.6 4.8 0.00 0.00 0.00 33 1019.7
20260508053948 2 107 0.0 4.8 0.00 0.00 0.00 34 1019.6
20260508053445 2 161 1.6 1.6 0.00 0.00 0.00 33 1019.7
20260508052943 2 111 0.0 3.2 0.00 0.00 0.00 33 1019.9
20260508052440 1 80 1.6 3.2 0.00 0.00 0.00 35 1019.7
20260508051937 1 78 0.0 0.0 0.00 0.00 0.00 35 1019.6
20260508051432 3 105 0.0 0.0 0.00 0.00 0.00 33 1019.6
20260508050928 3 100 0.0 0.0 0.00 0.00 0.00 32 1019.9
20260508050425 3 90 0.0 0.0 0.00 0.00 0.00 32 1019.5
20260508045921 3 115 0.0 0.0 0.00 0.00 0.00 33 1019.7
20260508045419 3 114 0.0 0.0 0.00 0.00 0.00 31 1019.5
20260508044916 2 101 0.0 0.0 0.00 0.00 0.00 34 1019.5
20260508044413 2 120 0.0 0.0 0.00 0.00 0.00 33 1019.6
20260508043903 3 114 0.0 0.0 0.00 0.00 0.00 32 1019.7
20260508043401 3 98 0.0 0.0 0.00 0.00 0.00 31 1019.6
20260508042857 5 74 0.0 3.2 0.00 0.00 0.00 29 1019.6
20260508042354 5 98 1.6 1.6 0.00 0.00 0.00 28 1019.9
20260508041851 5 88 0.0 0.0 0.00 0.00 0.00 28 1019.7
20260508041348 5 98 0.0 1.6 0.00 0.00 0.00 29 1019.6
20260508040844 5 114 0.0 1.6 0.00 0.00 0.00 29 1019.6
20260508040342 5 49 1.6 3.2 0.00 0.00 0.00 29 1019.5
20260508035839 5 91 1.6 1.6 0.00 0.00 0.00 29 1019.5
20260508035336 5 85 1.6 3.2 0.00 0.00 0.00 29 1019.5
20260508034833 5 76 1.6 3.2 0.00 0.00 0.00 28 1019.4
20260508034330 5 103 1.6 3.2 0.00 0.00 0.00 28 1019.2
20260508033827 5 84 1.6 1.6 0.00 0.00 0.00 28 1019.5
20260508033325 5 102 0.0 3.2 0.00 0.00 0.00 28 1019.2
20260508032822 5 62 3.2 3.2 0.00 0.00 0.00 28 1019.1
20260508032319 5 59 3.2 3.2 0.00 0.00 0.00 27 1019.0
20260508031815 6 96 0.0 0.0 0.00 0.00 0.00 27 1019.0
20260508031312 6 98 0.0 0.0 0.00 0.00 0.00 26 1018.9
20260508030808 6 87 0.0 0.0 0.00 0.00 0.00 26 1018.7
20260508030306 6 83 0.0 0.0 0.00 0.00 0.00 25 1018.7
20260508025802 7 122 0.0 0.0 0.00 0.00 0.00 24 1018.5
20260508025300 7 88 0.0 0.0 0.00 0.00 0.00 23 1018.6
20260508024755 8 112 0.0 0.0 0.00 0.00 0.00 23 1018.6
20260508024253 9 114 0.0 0.0 0.00 0.00 0.00 22 1018.5
20260508023750 10 117 0.0 0.0 0.00 0.00 0.00 21 1018.4
20260508023247 10 116 0.0 0.0 0.00 0.00 0.00 20 1018.5
20260508022742 11 122 0.0 0.0 0.00 0.00 0.00 18 1018.3
20260508022239 12 118 0.0 0.0 0.00 0.00 0.00 18 1018.1
20260508021736 12 118 0.0 0.0 0.00 0.00 0.00 17 1018.1
20260508021231 13 129 0.0 0.0 0.00 0.00 0.00 17 1018.1
20260508020729 13 128 0.0 1.6 0.00 0.00 0.00 16 1017.9
20260508020226 13 126 0.0 1.6 0.00 0.00 0.00 16 1018.3
20260508015723 14 123 0.0 0.0 0.00 0.00 0.00 16 1017.8
20260508015220 15 112 0.0 1.6 0.00 0.00 0.00 15 1018.1
20260508014717 15 115 0.0 1.6 0.00 0.00 0.00 15 1017.9
20260508014214 15 112 0.0 1.6 0.00 0.00 0.00 15 1017.6
20260508013709 16 134 0.0 3.2 0.00 0.00 0.00 15 1017.6
20260508013206 16 139 1.6 4.8 0.00 0.00 0.00 15 1017.6
20260508012704 16 111 0.0 3.2 0.00 0.00 0.00 15 1017.5
20260508012200 16 158 1.6 3.2 0.00 0.00 0.00 14 1017.6
20260508011659 17 131 1.6 4.8 0.00 0.00 0.00 14 1017.4
20260508011156 17 103 0.0 9.7 0.00 0.00 0.00 14 1017.4
20260508010653 17 115 1.6 4.8 0.00 0.00 0.00 15 1017.4
20260508010151 17 148 3.2 4.8 0.00 0.00 0.00 13 1017.3
20260508005648 17 79 1.6 4.8 0.00 0.00 0.00 13 1017.4
20260508005144 17 212 3.2 4.8 0.00 0.00 0.00 13 1017.3
20260508004640 18 116 3.2 3.2 0.00 0.00 0.00 12 1017.3
20260508004136 18 155 0.0 3.2 0.00 0.00 0.00 12 1017.4
20260508003632 18 180 4.8 6.4 0.00 0.00 0.00 12 1017.4
20260508003131 18 128 1.6 11.3 0.00 0.00 0.00 13 1017.6
20260508002627 19 168 3.2 4.8 0.00 0.00 0.00 12 1017.4
20260508002125 18 253 1.6 4.8 0.00 0.00 0.00 12 1017.3
20260508001619 19 63 4.8 11.3 0.00 0.00 0.00 12 1017.5
20260508001116 19 134 3.2 4.8 0.00 0.00 0.00 13 1017.4
20260508000612 20 127 1.6 3.2 0.00 0.00 0.00 12 1017.3
20260508000110 20 118 0.0 9.7 0.00 0.00 0.00 13 1017.4
20260507235606 20 175 3.2 9.7 0.00 0.00 0.00 13 1017.5
20260507235103 20 112 3.2 6.4 0.00 0.00 0.00 13 1017.5
20260507234600 20 122 1.6 6.4 0.00 0.00 0.00 13 1017.3
20260507234056 20 148 3.2 6.4 0.00 0.00 0.00 15 1017.4
20260507233553 20 98 1.6 4.8 0.00 0.00 0.00 14 1017.3
20260507233052 20 73 4.8 11.3 0.00 0.00 0.00 14 1017.6
20260507232548 20 106 3.2 6.4 0.00 0.00 0.00 14 1017.6
20260507232045 20 93 0.0 3.2 0.00 0.00 0.00 14 1017.5
20260507231542 20 114 1.6 3.2 0.00 0.00 0.00 14 1017.4
20260507231039 20 42 1.6 4.8 0.00 0.00 0.00 13 1017.4
20260507230535 21 56 6.4 9.7 0.00 0.00 0.00 13 1017.5
20260507230032 21 123 3.2 4.8 0.00 0.00 0.00 13 1017.6
20260507225527 21 146 3.2 4.8 0.00 0.00 0.00 13 1017.6
20260507225023 21 61 3.2 6.4 0.00 0.00 0.00 14 1017.6
20260507224520 21 136 3.2 11.3 0.00 0.00 0.00 14 1017.6
20260507224016 20 159 1.6 4.8 0.00 0.00 0.00 14 1017.8
20260507223513 21 147 6.4 6.4 0.00 0.00 0.00 13 1017.6
20260507223010 21 105 1.6 6.4 0.00 0.00 0.00 14 1017.8
20260507222507 20 48 3.2 12.9 0.00 0.00 0.00 14 1017.9
20260507222003 20 19 11.3 12.9 0.00 0.00 0.00 14 1017.8
20260507221500 21 146 6.4 11.3 0.00 0.00 0.00 13 1017.8
20260507220956 20 118 0.0 11.3 0.00 0.00 0.00 15 1018.0
20260507220454 20 98 3.2 4.8 0.00 0.00 0.00 13 1018.0
20260507215951 20 162 4.8 9.7 0.00 0.00 0.00 13 1017.9
20260507215447 19 86 3.2 6.4 0.00 0.00 0.00 13 1018.0
20260507214945 20 33 9.7 16.1 0.00 0.00 0.00 13 1018.3
20260507214442 20 138 3.2 4.8 0.00 0.00 0.00 14 1018.3
20260507213938 21 140 4.8 9.7 0.00 0.00 0.00 14 1018.1
20260507213434 20 235 3.2 6.4 0.00 0.00 0.00 14 1018.3
20260507212931 21 154 3.2 6.4 0.00 0.00 0.00 12 1018.6
20260507212427 21 15 3.2 9.7 0.00 0.00 0.00 12 1018.6
20260507211924 20 147 0.0 4.8 0.00 0.00 0.00 12 1018.9
20260507211420 20 71 3.2 6.4 0.00 0.00 0.00 12 1018.7
20260507210917 20 198 3.2 11.3 0.00 0.00 0.00 12 1018.9
20260507210414 21 122 0.0 6.4 0.00 0.00 0.00 11 1018.7
20260507205910 21 170 3.2 11.3 0.00 0.00 0.00 12 1018.9
20260507205408 19 137 4.8 4.8 0.00 0.00 0.00 11 1018.9
20260507204904 20 69 4.8 6.4 0.00 0.00 0.00 11 1019.1
20260507204400 20 30 4.8 4.8 0.00 0.00 0.00 12 1019.2
20260507203858 18 19 6.4 11.3 0.00 0.00 0.00 12 1019.5
20260507203356 20 84 1.6 6.4 0.00 0.00 0.00 12 1019.2
20260507202852 20 132 1.6 11.3 0.00 0.00 0.00 12 1019.4
20260507202348 19 31 3.2 9.7 0.00 0.00 0.00 10 1019.5
20260507201845 20 87 4.8 6.4 0.00 0.00 0.00 10 1019.6
20260507201340 20 69 4.8 9.7 0.00 0.00 0.00 10 1019.5
20260507200836 19 207 3.2 11.3 0.00 0.00 0.00 10 1019.6
20260507200332 20 100 1.6 12.9 0.00 0.00 0.00 11 1019.5
20260507195828 18 176 6.4 9.7 0.00 0.00 0.00 13 1020.0
20260507195326 19 342 4.8 12.9 0.00 0.00 0.00 11 1019.9
20260507194823 20 100 6.4 11.3 0.00 0.00 0.00 11 1020.0
20260507194319 18 156 1.6 3.2 0.00 0.00 0.00 12 1020.0
20260507193816 19 29 9.7 11.3 0.00 0.00 0.00 11 1020.0
20260507193313 19 77 3.2 6.4 0.00 0.00 0.00 11 1020.0
20260507192808 18 294 6.4 9.7 0.00 0.00 0.00 11 1020.0
20260507192306 18 187 3.2 4.8 0.00 0.00 0.00 13 1020.0
20260507191802 20 177 6.4 11.3 0.00 0.00 0.00 13 1020.2
20260507191258 20 101 3.2 6.4 0.00 0.00 0.00 13 1020.2
20260507190755 18 144 3.2 9.7 0.00 0.00 0.00 14 1020.2
20260507190254 17 151 6.4 9.7 0.00 0.00 0.00 16 1020.4
20260507185752 18 191 3.2 12.9 0.00 0.00 0.00 15 1020.4
20260507185248 18 227 3.2 6.4 0.00 0.00 0.00 16 1020.6
20260507184746 18 195 8.0 12.9 0.00 0.00 0.00 14 1020.6
20260507184244 17 100 0.0 6.4 0.00 0.00 0.00 15 1020.7
20260507183741 18 204 6.4 9.7 0.00 0.00 0.00 14 1020.7
20260507183238 18 17 6.4 9.7 0.00 0.00 0.00 15 1020.7
20260507182736 17 123 3.2 4.8 0.00 0.00 0.00 14 1020.8
20260507182236 17 62 4.8 14.5 0.00 0.00 0.00 18 1020.8
20260507181733 17 123 3.2 4.8 0.00 0.00 0.00 20 1020.8
20260507181229 17 122 0.0 9.7 0.00 0.00 0.00 20 1021.0
20260507180726 17 120 3.2 11.3 0.00 0.00 0.00 21 1021.1
20260507180223 16 117 3.2 4.8 0.00 0.00 0.00 20 1021.1
20260507175718 16 72 6.4 9.7 0.00 0.00 0.00 19 1021.1
20260507175215 16 51 4.8 6.4 0.00 0.00 0.00 19 1021.6
20260507174713 15 184 3.2 12.9 0.00 0.00 0.00 22 1021.2
20260507174211 16 146 8.0 11.3 0.00 0.00 0.00 22 1021.3
20260507173708 16 249 3.2 4.8 0.00 0.00 0.00 20 1021.6
20260507173204 16 148 4.8 9.7 0.00 0.00 0.00 20 1021.7
20260507172701 15 114 4.8 9.7 0.00 0.00 0.00 22 1021.6
20260507172158 15 51 1.6 4.8 0.00 0.00 0.00 22 1021.6
20260507171658 15 137 4.8 6.4 0.00 0.00 0.00 22 1021.8
20260507171156 15 218 1.6 4.8 0.00 0.00 0.00 22 1021.8
20260507170653 14 125 3.2 4.8 0.00 0.00 0.00 22 1022.1
20260507170150 14 189 3.2 6.4 0.00 0.00 0.00 21 1022.0
20260507165645 14 93 1.6 9.7 0.00 0.00 0.00 23 1022.2
20260507165142 13 118 0.0 1.6 0.00 0.00 0.00 20 1022.3
20260507164637 13 109 3.2 6.4 0.00 0.00 0.00 24 1022.5
20260507164135 13 113 1.6 9.7 0.00 0.00 0.00 25 1022.6
20260507163632 13 34 3.2 4.8 0.00 0.00 0.00 23 1022.5
20260507163130 13 117 0.0 4.8 0.00 0.00 0.00 25 1022.5
20260507162625 12 115 1.6 6.4 0.00 0.00 0.00 26 1022.6
20260507162122 13 86 1.6 6.4 0.00 0.00 0.00 25 1022.7
20260507161618 13 120 0.0 4.8 0.00 0.00 0.00 25 1022.9
20260507161115 13 116 1.6 3.2 0.00 0.00 0.00 26 1022.6
20260507160611 12 104 1.6 4.8 0.00 0.00 0.00 26 1022.7
20260507160108 11 148 3.2 4.8 0.00 0.00 0.00 27 1022.7
20260507155603 12 163 4.8 9.7 0.00 0.00 0.00 26 1022.7
20260507155100 12 189 3.2 4.8 0.00 0.00 0.00 26 1022.7
20260507154557 11 162 3.2 4.8 0.00 0.00 0.00 28 1022.7
20260507154054 11 131 1.6 4.8 0.00 0.00 0.00 28 1022.7
20260507153551 11 138 3.2 4.8 0.00 0.00 0.00 29 1022.7
20260507153047 11 158 3.2 4.8 0.00 0.00 0.00 27 1022.7
20260507152543 11 147 3.2 4.8 0.00 0.00 0.00 28 1022.9
20260507152040 10 115 0.0 3.2 0.00 0.00 0.00 29 1022.8
20260507151536 11 142 0.0 3.2 0.00 0.00 0.00 29 1023.1
20260507151033 10 105 0.0 1.6 0.00 0.00 0.00 30 1022.9
20260507150530 9 76 1.6 3.2 0.00 0.00 0.00 32 1023.1
20260507150027 8 109 3.2 4.8 0.00 0.00 0.00 35 1023.1
20260507145522 9 111 0.0 0.0 0.00 0.00 0.00 32 1022.9
20260507145020 8 128 1.6 1.6 0.00 0.00 0.00 34 1022.9
20260507144516 8 120 0.0 1.6 0.00 0.00 0.00 32 1023.1
20260507144014 8 93 1.6 3.2 0.00 0.00 0.00 38 1023.1
20260507143511 7 107 0.0 1.6 0.00 0.00 0.00 40 1023.2
20260507143008 6 124 1.6 1.6 0.00 0.00 0.00 44 1022.9
20260507142503 5 101 3.2 3.2 0.00 0.00 0.00 46 1023.1
20260507142000 4 113 0.0 1.6 0.00 0.00 0.00 48 1023.2
20260507141456 4 116 1.6 3.2 0.00 0.00 0.00 49 1023.1
20260507140953 4 110 0.0 0.0 0.00 0.00 0.00 50 1023.2
20260507140449 3 114 0.0 1.6 0.00 0.00 0.00 49 1022.8
20260507135947 2 100 0.0 1.6 0.00 0.00 0.00 54 1022.9
20260507135444 1 114 1.6 1.6 0.00 0.00 0.00 57 1022.9
20260507134941 0 66 1.6 3.2 0.00 0.00 0.00 58 1023.3
20260507134438 0 110 1.6 3.2 0.00 0.00 0.00 62 1023.1
20260507133934 0 92 0.0 3.2 0.00 0.00 0.00 62 1023.1
20260507133430 -1 75 1.6 3.2 0.00 0.00 0.00 62 1023.3
20260507132929 -2 80 1.6 3.2 0.00 0.00 0.00 65 1023.2
20260507132424 -2 77 1.6 3.2 0.00 0.00 0.00 68 1023.3
20260507131921 -3 53 1.6 3.2 0.00 0.00 0.00 69 1023.3
20260507131418 -3 58 3.2 4.8 0.00 0.00 0.00 71 1023.2
20260507130915 -4 61 4.8 4.8 0.00 0.00 0.00 73 1023.3
20260507130412 -4 52 4.8 6.4 0.00 0.00 0.00 73 1023.2
20260507125911 -5 77 0.0 1.6 0.00 0.00 0.00 74 1023.1
20260507125408 -6 95 0.0 0.0 0.00 0.00 0.00 81 1023.3
20260507124906 -7 107 0.0 0.0 0.00 0.00 0.00 86 1023.2
20260507124401 -8 102 0.0 0.0 0.00 0.00 0.00 85 1023.1
20260507123900 -8 102 0.0 0.0 0.00 0.00 0.00 85 1023.2
20260507123357 -7 108 0.0 1.6 0.00 0.00 0.00 85 1023.1
20260507122853 -8 110 0.0 0.0 0.00 0.00 0.00 85 1023.1
20260507122349 -8 80 0.0 1.6 0.00 0.00 0.00 85 1023.2
20260507121845 -8 86 0.0 1.6 0.00 0.00 0.00 84 1023.4
20260507121340 -8 110 0.0 0.0 0.00 0.00 0.00 83 1023.3
20260507120837 -7 87 1.6 1.6 0.00 0.00 0.00 83 1023.3
20260507120334 -7 100 0.0 1.6 0.00 0.00 0.00 81 1023.3
20260507115830 -6 112 0.0 0.0 0.00 0.00 0.00 81 1023.3
20260507115326 -6 81 0.0 1.6 0.00 0.00 0.00 81 1023.4
20260507114822 -7 44 1.6 4.8 0.00 0.00 0.00 82 1023.4
20260507114319 -7 93 1.6 3.2 0.00 0.00 0.00 84 1023.3
20260507113817 -7 72 1.6 1.6 0.00 0.00 0.00 81 1023.2
20260507113313 -7 93 0.0 1.6 0.00 0.00 0.00 82 1023.2
20260507112811 -7 115 0.0 0.0 0.00 0.00 0.00 80 1023.2
20260507112308 -6 118 0.0 0.0 0.00 0.00 0.00 80 1022.9
20260507111806 -6 109 0.0 0.0 0.00 0.00 0.00 80 1022.8
20260507111302 -6 90 0.0 0.0 0.00 0.00 0.00 80 1022.8
20260507110758 -6 102 0.0 0.0 0.00 0.00 0.00 79 1022.8
20260507110254 -6 117 0.0 0.0 0.00 0.00 0.00 77 1022.7
20260507105752 -6 101 0.0 1.6 0.00 0.00 0.00 76 1022.8
20260507105247 -6 93 0.0 1.6 0.00 0.00 0.00 78 1022.8
20260507104745 -6 62 0.0 0.0 0.00 0.00 0.00 81 1022.7
20260507104236 -7 81 0.0 0.0 0.00 0.00 0.00 81 1022.7
20260507103732 -6 103 0.0 0.0 0.00 0.00 0.00 80 1022.7
20260507103229 -6 109 0.0 0.0 0.00 0.00 0.00 80 1022.7
20260507102725 -6 109 0.0 0.0 0.00 0.00 0.00 80 1022.8
20260507102221 -6 100 0.0 0.0 0.00 0.00 0.00 80 1022.6
20260507101717 -6 110 0.0 0.0 0.00 0.00 0.00 78 1022.6
20260507101213 -6 132 0.0 0.0 0.00 0.00 0.00 80 1022.6
20260507100710 -6 95 0.0 0.0 0.00 0.00 0.00 79 1022.5
20260507100208 -6 105 0.0 0.0 0.00 0.00 0.00 79 1022.3
20260507095707 -6 113 0.0 0.0 0.00 0.00 0.00 77 1022.5
20260507095203 -5 81 1.6 1.6 0.00 0.00 0.00 74 1022.3
20260507094700 -5 100 0.0 0.0 0.00 0.00 0.00 76 1022.3
20260507094156 -5 105 0.0 0.0 0.00 0.00 0.00 76 1022.3
20260507093653 -4 111 0.0 0.0 0.00 0.00 0.00 72 1022.3
20260507093152 -5 79 0.0 1.6 0.00 0.00 0.00 75 1022.3
20260507092649 -6 95 0.0 1.6 0.00 0.00 0.00 77 1022.3
20260507092146 -4 104 0.0 0.0 0.00 0.00 0.00 72 1022.3
20260507091642 -5 99 0.0 1.6 0.00 0.00 0.00 74 1022.2
20260507091138 -6 99 0.0 3.2 0.00 0.00 0.00 77 1022.2
20260507090634 -5 97 0.0 0.0 0.00 0.00 0.00 76 1022.3
20260507090131 -5 106 0.0 0.0 0.00 0.00 0.00 74 1022.3
20260507085628 -4 107 0.0 0.0 0.00 0.00 0.00 74 1022.5
20260507085124 -5 81 0.0 0.0 0.00 0.00 0.00 75 1022.5
20260507084621 -5 94 0.0 0.0 0.00 0.00 0.00 77 1022.6
20260507084118 -5 97 0.0 0.0 0.00 0.00 0.00 77 1022.3
20260507083615 -5 118 0.0 0.0 0.00 0.00 0.00 74 1022.6
20260507083112 -5 103 0.0 0.0 0.00 0.00 0.00 76 1022.6
20260507082607 -5 73 1.6 1.6 0.00 0.00 0.00 77 1022.3
20260507082104 -5 120 0.0 0.0 0.00 0.00 0.00 75 1022.5
20260507081600 -5 105 0.0 0.0 0.00 0.00 0.00 75 1022.6
20260507081057 -5 90 0.0 1.6 0.00 0.00 0.00 75 1022.5
20260507080553 -4 105 0.0 0.0 0.00 0.00 0.00 74 1022.5
20260507080050 -3 80 0.0 0.0 0.00 0.00 0.00 71 1022.6
20260507075545 -4 111 0.0 0.0 0.00 0.00 0.00 73 1022.6
20260507075041 -4 97 0.0 0.0 0.00 0.00 0.00 71 1022.7
20260507074538 -3 113 0.0 0.0 0.00 0.00 0.00 71 1022.6
20260507074032 -3 106 0.0 1.6 0.00 0.00 0.00 69 1022.6
20260507073527 -2 81 1.6 3.2 0.00 0.00 0.00 65 1022.6
20260507073024 -3 152 0.0 1.6 0.00 0.00 0.00 68 1022.3
20260507072522 -3 78 1.6 1.6 0.00 0.00 0.00 71 1022.6
20260507072019 -3 92 0.0 0.0 0.00 0.00 0.00 69 1022.5
20260507071516 -2 100 1.6 1.6 0.00 0.00 0.00 67 1022.6
20260507071012 -3 109 0.0 1.6 0.00 0.00 0.00 69 1022.2
20260507070510 -3 91 1.6 1.6 0.00 0.00 0.00 72 1022.3
20260507070010 -3 112 0.0 0.0 0.00 0.00 0.00 70 1022.2
20260507065503 -3 114 0.0 0.0 0.00 0.00 0.00 70 1022.1
20260507065000 -3 98 0.0 1.6 0.00 0.00 0.00 71 1022.0
20260507064458 -3 73 0.0 0.0 0.00 0.00 0.00 71 1022.2
20260507063956 -3 112 0.0 0.0 0.00 0.00 0.00 72 1022.3
20260507063452 -3 87 0.0 0.0 0.00 0.00 0.00 71 1022.3
20260507062950 -3 108 0.0 0.0 0.00 0.00 0.00 71 1022.2
20260507062447 -3 96 0.0 0.0 0.00 0.00 0.00 72 1022.1
20260507061944 -3 112 0.0 0.0 0.00 0.00 0.00 71 1022.1
20260507061442 -3 58 1.6 3.2 0.00 0.00 0.00 70 1022.2
20260507060940 -3 89 0.0 0.0 0.00 0.00 0.00 70 1022.0
20260507060437 -3 91 1.6 1.6 0.00 0.00 0.00 69 1021.8
20260507055933 -3 112 0.0 1.6 0.00 0.00 0.00 69 1022.0
20260507055429 -2 70 1.6 3.2 0.00 0.00 0.00 67 1021.8
20260507054926 -3 101 0.0 1.6 0.00 0.00 0.00 68 1021.8